QPF
0.00 0.00 0.00 0.01 0.01 0.00 0.00 0.00 0.00 0.00 0.00 0.00 0.00 0.00 0.00 0.00 0.00 0.00 0.01 0.01 0.00 0.00 0.00 0.01 0.02 0.01 0.01 0.01 0.01 0.01 0.01 0.01 0.01 0.01 0.01 0.01 0.01 0.01 0.01 0.01 0.01 0.01 0.01 0.01 0.01 0.01 0.00 0.00 0.01
0.00 0.00 0.00 0.01 0.00 0.00 0.00 0.00 0.00 0.00 0.00 0.00 0.00 0.00 0.00 0.00 0.00 0.00 0.01 0.01 0.01 0.00 0.01 0.01 0.02 0.01 0.01 0.01 0.01 0.02 0.01 0.01 0.02 0.03 0.01 0.01 0.01 0.01 0.01 0.01 0.02 0.01 0.01 0.01 0.01 0.00 0.00 0.00 0.00
0.00 0.00 0.01 0.01 0.00 0.00 0.00 0.00 0.00 0.00 0.00 0.00 0.00 0.00 0.00 0.00 0.00 0.00 0.00 0.01 0.01 0.00 0.01 0.01 0.01 0.01 0.01 0.01 0.01 0.02 0.01 0.01 0.02 0.03 0.02 0.01 0.01 0.01 0.01 0.02 0.01 0.01 0.00 0.00 0.00 0.00 0.00 0.00 0.00
0.01 0.01 0.01 0.00 0.00 0.00 0.00 0.00 0.00 0.00 0.00 0.00 0.00 0.00 0.00 0.00 0.00 0.00 0.00 0.01 0.01 0.00 0.00 0.01 0.01 0.01 0.01 0.01 0.01 0.01 0.01 0.02 0.02 0.02 0.01 0.01 0.01 0.01 0.01 0.01 0.00 0.00 0.00 0.00 0.00 0.00 0.00 0.00 0.00
0.02 0.01 0.01 0.00 0.00 0.00 0.00 0.00 0.00 0.00 0.00 0.00 0.00 0.00 0.00 0.00 0.00 0.00 0.00 0.00 0.00 0.00 0.01 0.01 0.01 0.01 0.01 0.01 0.01 0.01 0.01 0.01 0.01 0.01 0.01 0.01 0.01 0.01 0.00 0.00 0.00 0.00 0.00 0.00 0.00 0.00 0.00 0.00 0.00
0.02 0.01 0.00 0.00 0.00 0.00 0.00 0.00 0.00 0.00 0.00 0.00 0.00 0.00 0.00 0.00 0.01 0.01 0.00 0.00 0.00 0.01 0.01 0.01 0.02 0.02 0.02 0.02 0.02 0.01 0.01 0.01 0.01 0.02 0.01 0.01 0.01 0.01 0.00 0.00 0.00 0.00 0.00 0.00 0.00 0.00 0.00 0.00 0.00
0.02 0.01 0.00 0.00 0.00 0.00 0.00 0.00 0.00 0.00 0.00 0.00 0.00 0.00 0.00 0.01 0.02 0.01 0.01 0.01 0.01 0.01 0.01 0.01 0.02 0.02 0.03 0.03 0.02 0.01 0.01 0.01 0.02 0.02 0.01 0.01 0.01 0.00 0.00 0.00 0.00 0.00 0.00 0.00 0.00 0.00 0.00 0.00 0.00
0.02 0.01 0.00 0.00 0.00 0.00 0.00 0.00 0.00 0.00 0.00 0.00 0.00 0.00 0.00 0.01 0.01 0.01 0.02 0.03 0.02 0.02 0.02 0.02 0.02 0.02 0.02 0.02 0.02 0.02 0.02 0.01 0.02 0.02 0.02 0.01 0.00 0.00 0.00 0.00 0.00 0.00 0.01 0.00 0.00 0.00 0.00 0.00 0.00
0.02 0.02 0.00 0.00 0.00 0.00 0.00 0.00 0.00 0.00 0.00 0.00 0.00 0.00 0.00 0.00 0.01 0.02 0.03 0.05 0.04 0.04 0.03 0.02 0.03 0.03 0.02 0.02 0.02 0.02 0.02 0.02 0.02 0.03 0.02 0.01 0.00 0.00 0.00 0.00 0.00 0.00 0.01 0.01 0.01 0.01 0.00 0.00 0.00
0.03 0.01 0.00 0.00 0.00 0.00 0.00 0.00 0.00 0.00 0.00 0.00 0.00 0.00 0.01 0.01 0.02 0.02 0.02 0.02 0.02 0.02 0.02 0.02 0.02 0.02 0.02 0.02 0.02 0.02 0.02 0.02 0.01 0.02 0.01 0.00 0.00 0.00 0.00 0.00 0.00 0.00 0.00 0.00 0.01 0.01 0.01 0.00 0.00
0.02 0.01 0.00 0.00 0.00 0.00 0.00 0.00 0.00 0.00 0.00 0.00 0.00 0.00 0.01 0.01 0.01 0.02 0.02 0.03 0.02 0.03 0.04 0.05 0.03 0.02 0.02 0.02 0.03 0.02 0.02 0.02 0.01 0.01 0.00 0.00 0.00 0.00 0.00 0.00 0.01 0.00 0.00 0.00 0.00 0.00 0.00 0.00 0.00
0.02 0.00 0.00 0.00 0.00 0.00 0.00 0.00 0.00 0.00 0.00 0.00 0.00 0.00 0.01 0.01 0.01 0.01 0.02 0.04 0.04 0.05 0.06 0.08 0.06 0.04 0.04 0.04 0.04 0.04 0.03 0.03 0.02 0.01 0.01 0.00 0.00 0.00 0.01 0.01 0.00 0.01 0.01 0.01 0.00 0.00 0.00 0.00 0.00
0.02 0.00 0.00 0.00 0.00 0.00 0.00 0.00 0.00 0.00 0.00 0.00 0.00 0.01 0.01 0.01 0.01 0.01 0.02 0.03 0.04 0.05 0.06 0.08 0.09 0.07 0.06 0.05 0.05 0.04 0.04 0.03 0.03 0.03 0.02 0.01 0.01 0.01 0.02 0.02 0.00 0.00 0.01 0.01 0.02 0.01 0.00 0.01 0.01
0.01 0.01 0.00 0.00 0.00 0.00 0.00 0.00 0.00 0.00 0.01 0.01 0.01 0.01 0.01 0.01 0.01 0.01 0.02 0.03 0.03 0.03 0.03 0.06 0.11 0.10 0.08 0.06 0.08 0.07 0.06 0.05 0.04 0.04 0.02 0.02 0.01 0.01 0.02 0.03 0.01 0.01 0.01 0.00 0.01 0.01 0.01 0.00 0.00
0.02 0.02 0.01 0.01 0.01 0.00 0.00 0.00 0.00 0.00 0.00 0.01 0.01 0.00 0.01 0.01 0.01 0.02 0.02 0.03 0.02 0.03 0.03 0.04 0.10 0.12 0.10 0.10 0.10 0.10 0.08 0.07 0.05 0.05 0.04 0.03 0.02 0.02 0.02 0.02 0.02 0.01 0.01 0.01 0.01 0.00 0.00 0.00 0.00
0.03 0.03 0.03 0.02 0.01 0.00 0.00 0.00 0.00 0.00 0.00 0.00 0.01 0.00 0.00 0.00 0.01 0.01 0.02 0.03 0.03 0.03 0.03 0.05 0.08 0.09 0.08 0.10 0.12 0.10 0.08 0.07 0.06 0.04 0.03 0.04 0.03 0.03 0.03 0.03 0.02 0.01 0.01 0.00 0.00 0.00 0.00 0.00 0.00
0.04 0.04 0.03 0.02 0.01 0.00 0.00 0.00 0.00 0.00 0.00 0.00 0.01 0.01 0.00 0.00 0.01 0.01 0.02 0.03 0.04 0.04 0.04 0.04 0.06 0.08 0.07 0.07 0.10 0.11 0.08 0.06 0.05 0.04 0.03 0.02 0.02 0.03 0.03 0.03 0.02 0.02 0.01 0.00 0.00 0.00 0.00 0.00 0.00
0.05 0.03 0.03 0.02 0.01 0.00 0.00 0.00 0.00 0.00 0.00 0.00 0.00 0.01 0.01 0.00 0.01 0.01 0.01 0.02 0.04 0.05 0.05 0.05 0.07 0.09 0.09 0.08 0.06 0.06 0.06 0.05 0.04 0.03 0.02 0.02 0.02 0.02 0.03 0.03 0.02 0.02 0.02 0.01 0.00 0.00 0.00 0.00 0.00
0.04 0.02 0.02 0.02 0.01 0.01 0.00 0.00 0.00 0.00 0.00 0.00 0.00 0.01 0.01 0.01 0.01 0.01 0.01 0.02 0.04 0.05 0.05 0.05 0.06 0.07 0.07 0.05 0.04 0.03 0.03 0.03 0.03 0.03 0.03 0.03 0.02 0.02 0.02 0.02 0.03 0.02 0.02 0.01 0.01 0.00 0.00 0.00 0.00
0.04 0.03 0.02 0.02 0.01 0.01 0.00 0.00 0.00 0.00 0.00 0.00 0.00 0.01 0.01 0.01 0.01 0.01 0.02 0.02 0.03 0.03 0.04 0.04 0.04 0.06 0.05 0.04 0.05 0.05 0.03 0.03 0.04 0.03 0.04 0.04 0.04 0.03 0.03 0.03 0.03 0.03 0.02 0.01 0.01 0.01 0.01 0.00 0.00
0.04 0.03 0.03 0.03 0.03 0.02 0.01 0.01 0.00 0.00 0.00 0.00 0.00 0.01 0.01 0.01 0.01 0.01 0.01 0.02 0.02 0.03 0.04 0.04 0.04 0.05 0.05 0.05 0.04 0.04 0.04 0.03 0.02 0.02 0.02 0.02 0.03 0.03 0.03 0.03 0.04 0.05 0.04 0.03 0.01 0.01 0.01 0.00 0.00
0.05 0.03 0.02 0.03 0.04 0.06 0.03 0.02 0.01 0.00 0.00 0.00 0.00 0.00 0.01 0.01 0.02 0.03 0.02 0.02 0.02 0.04 0.04 0.04 0.04 0.04 0.05 0.04 0.03 0.03 0.02 0.01 0.01 0.02 0.02 0.02 0.01 0.01 0.01 0.01 0.02 0.02 0.03 0.03 0.03 0.02 0.02 0.01 0.01
0.04 0.02 0.03 0.04 0.05 0.06 0.05 0.03 0.01 0.00 0.00 0.00 0.00 0.00 0.00 0.01 0.01 0.01 0.02 0.02 0.03 0.05 0.06 0.05 0.04 0.03 0.05 0.05 0.04 0.04 0.03 0.03 0.02 0.02 0.02 0.01 0.01 0.00 0.00 0.00 0.00 0.01 0.01 0.01 0.01 0.02 0.03 0.02 0.01
0.03 0.03 0.04 0.04 0.07 0.09 0.05 0.05 0.02 0.00 0.00 0.00 0.00 0.00 0.00 0.00 0.00 0.00 0.01 0.02 0.02 0.03 0.05 0.05 0.04 0.03 0.03 0.04 0.04 0.03 0.02 0.02 0.01 0.01 0.01 0.01 0.00 0.00 0.00 0.00 0.00 0.00 0.00 0.00 0.00 0.00 0.01 0.01 0.00
0.04 0.06 0.12 0.12 0.12 0.07 0.02 0.03 0.03 0.01 0.00 0.00 0.00 0.00 0.00 0.00 0.00 0.00 0.00 0.01 0.01 0.01 0.03 0.04 0.04 0.03 0.02 0.03 0.03 0.02 0.02 0.02 0.01 0.01 0.02 0.01 0.01 0.00 0.00 0.00 0.00 0.00 0.00 0.00 0.00 0.00 0.00 0.00 0.00
0.04 0.04 0.07 0.08 0.06 0.02 0.01 0.02 0.02 0.01 0.00 0.00 0.00 0.00 0.00 0.00 0.00 0.00 0.00 0.00 0.00 0.01 0.01 0.04 0.04 0.04 0.02 0.02 0.02 0.02 0.02 0.02 0.02 0.02 0.01 0.01 0.01 0.01 0.01 0.00 0.00 0.00 0.00 0.00 0.00 0.00 0.00 0.00 0.00
0.04 0.03 0.03 0.04 0.02 0.01 0.02 0.02 0.01 0.01 0.01 0.00 0.00 0.00 0.00 0.00 0.00 0.00 0.00 0.00 0.00 0.00 0.01 0.02 0.04 0.04 0.03 0.01 0.01 0.02 0.02 0.02 0.02 0.02 0.02 0.01 0.01 0.01 0.01 0.00 0.00 0.00 0.00 0.00 0.00 0.00 0.00 0.00 0.00
0.04 0.03 0.04 0.04 0.03 0.02 0.02 0.01 0.01 0.01 0.01 0.01 0.01 0.00 0.00 0.00 0.00 0.00 0.00 0.00 0.00 0.00 0.01 0.02 0.02 0.04 0.03 0.02 0.01 0.01 0.01 0.01 0.02 0.02 0.01 0.01 0.01 0.01 0.01 0.01 0.00 0.00 0.00 0.00 0.00 0.00 0.00 0.00 0.00
0.04 0.04 0.04 0.04 0.04 0.03 0.02 0.02 0.01 0.01 0.01 0.01 0.01 0.01 0.00 0.00 0.00 0.00 0.00 0.00 0.00 0.00 0.01 0.03 0.02 0.02 0.03 0.02 0.01 0.01 0.01 0.01 0.01 0.01 0.02 0.02 0.01 0.01 0.02 0.01 0.01 0.00 0.00 0.00 0.00 0.00 0.00 0.00 0.00
0.03 0.03 0.03 0.04 0.04 0.03 0.03 0.02 0.02 0.01 0.01 0.01 0.01 0.01 0.01 0.01 0.00 0.00 0.00 0.00 0.00 0.00 0.00 0.02 0.02 0.01 0.02 0.01 0.01 0.01 0.01 0.01 0.01 0.01 0.01 0.02 0.02 0.01 0.01 0.01 0.01 0.01 0.00 0.00 0.00 0.00 0.00 0.00 0.00
MSLP
1014.42 1014.99 1015.64 1016.25 1016.70 1016.86 1016.70 1016.22 1015.47 1014.56 1013.61 1012.76 1012.06 1011.56 1011.24 1011.05 1010.92 1010.80 1010.64 1010.46 1010.29 1010.19 1010.22 1010.41 1010.77 1011.26 1011.82 1012.37 1012.87 1013.27 1013.57 1013.79 1013.99 1014.20 1014.47 1014.78 1015.14 1015.50 1015.82 1016.08 1016.25 1016.36 1016.41 1016.45 1016.50 1016.56 1016.64 1016.72 1016.75
1014.75 1015.34 1015.95 1016.47 1016.76 1016.73 1016.35 1015.65 1014.69 1013.60 1012.53 1011.58 1010.85 1010.35 1010.06 1009.93 1009.88 1009.84 1009.79 1009.73 1009.68 1009.71 1009.86 1010.16 1010.62 1011.20 1011.82 1012.44 1012.97 1013.40 1013.72 1013.96 1014.16 1014.38 1014.64 1014.95 1015.30 1015.65 1015.96 1016.21 1016.38 1016.48 1016.54 1016.57 1016.62 1016.67 1016.74 1016.80 1016.83
1014.99 1015.52 1016.04 1016.42 1016.55 1016.35 1015.80 1014.94 1013.86 1012.68 1011.55 1010.59 1009.85 1009.37 1009.12 1009.03 1009.04 1009.07 1009.10 1009.13 1009.19 1009.32 1009.58 1009.99 1010.54 1011.19 1011.88 1012.53 1013.10 1013.55 1013.88 1014.13 1014.34 1014.55 1014.80 1015.09 1015.41 1015.73 1016.03 1016.26 1016.43 1016.54 1016.61 1016.66 1016.71 1016.78 1016.85 1016.91 1016.95
1015.07 1015.50 1015.89 1016.12 1016.09 1015.75 1015.10 1014.17 1013.05 1011.88 1010.78 1009.86 1009.17 1008.73 1008.51 1008.45 1008.49 1008.57 1008.65 1008.74 1008.88 1009.10 1009.45 1009.93 1010.54 1011.24 1011.96 1012.64 1013.22 1013.69 1014.03 1014.29 1014.50 1014.71 1014.94 1015.21 1015.51 1015.81 1016.08 1016.31 1016.48 1016.60 1016.68 1016.76 1016.83 1016.92 1017.01 1017.10 1017.16
1014.97 1015.26 1015.49 1015.57 1015.41 1014.99 1014.29 1013.37 1012.32 1011.24 1010.24 1009.41 1008.80 1008.42 1008.23 1008.20 1008.25 1008.34 1008.45 1008.59 1008.77 1009.05 1009.44 1009.97 1010.61 1011.32 1012.04 1012.72 1013.30 1013.78 1014.14 1014.41 1014.64 1014.86 1015.10 1015.37 1015.65 1015.93 1016.19 1016.41 1016.58 1016.71 1016.82 1016.92 1017.03 1017.14 1017.26 1017.37 1017.45
1014.68 1014.81 1014.88 1014.82 1014.57 1014.11 1013.44 1012.60 1011.67 1010.74 1009.89 1009.19 1008.69 1008.37 1008.22 1008.19 1008.25 1008.34 1008.46 1008.62 1008.83 1009.14 1009.55 1010.08 1010.71 1011.39 1012.09 1012.75 1013.32 1013.80 1014.19 1014.50 1014.78 1015.04 1015.31 1015.59 1015.88 1016.16 1016.41 1016.62 1016.79 1016.93 1017.05 1017.17 1017.30 1017.44 1017.57 1017.71 1017.82
1014.26 1014.23 1014.14 1013.96 1013.64 1013.17 1012.57 1011.86 1011.09 1010.34 1009.67 1009.12 1008.72 1008.47 1008.34 1008.32 1008.37 1008.46 1008.58 1008.75 1008.98 1009.29 1009.71 1010.22 1010.81 1011.45 1012.10 1012.71 1013.27 1013.77 1014.19 1014.56 1014.91 1015.24 1015.57 1015.89 1016.21 1016.50 1016.74 1016.95 1017.11 1017.25 1017.37 1017.50 1017.64 1017.79 1017.94 1018.09 1018.22
1013.76 1013.58 1013.35 1013.06 1012.69 1012.24 1011.72 1011.14 1010.55 1009.99 1009.48 1009.07 1008.76 1008.57 1008.46 1008.44 1008.48 1008.56 1008.70 1008.88 1009.13 1009.45 1009.86 1010.34 1010.89 1011.47 1012.06 1012.64 1013.18 1013.69 1014.16 1014.60 1015.03 1015.45 1015.86 1016.25 1016.60 1016.91 1017.16 1017.35 1017.50 1017.63 1017.74 1017.86 1018.00 1018.15 1018.31 1018.47 1018.61
1013.26 1012.94 1012.59 1012.20 1011.79 1011.36 1010.91 1010.46 1010.03 1009.62 1009.26 1008.96 1008.73 1008.56 1008.47 1008.44 1008.48 1008.57 1008.72 1008.93 1009.21 1009.55 1009.96 1010.43 1010.93 1011.46 1012.01 1012.54 1013.07 1013.60 1014.12 1014.64 1015.16 1015.67 1016.16 1016.62 1017.01 1017.34 1017.59 1017.77 1017.90 1018.01 1018.11 1018.22 1018.35 1018.50 1018.67 1018.83 1018.98
1012.83 1012.38 1011.91 1011.44 1010.99 1010.56 1010.17 1009.82 1009.50 1009.22 1008.97 1008.74 1008.56 1008.42 1008.32 1008.29 1008.32 1008.43 1008.60 1008.86 1009.18 1009.56 1009.99 1010.46 1010.95 1011.45 1011.95 1012.46 1012.98 1013.52 1014.09 1014.67 1015.27 1015.86 1016.42 1016.93 1017.37 1017.71 1017.97 1018.14 1018.26 1018.34 1018.43 1018.53 1018.66 1018.82 1018.99 1019.16 1019.32
1012.51 1011.96 1011.38 1010.83 1010.32 1009.89 1009.53 1009.24 1009.01 1008.80 1008.62 1008.45 1008.29 1008.15 1008.05 1008.00 1008.03 1008.15 1008.36 1008.66 1009.04 1009.47 1009.95 1010.44 1010.94 1011.43 1011.92 1012.42 1012.94 1013.49 1014.08 1014.71 1015.35 1016.00 1016.61 1017.16 1017.62 1017.98 1018.23 1018.40 1018.52 1018.60 1018.69 1018.80 1018.93 1019.10 1019.29 1019.48 1019.66
1012.34 1011.69 1011.02 1010.38 1009.82 1009.36 1009.01 1008.75 1008.56 1008.41 1008.27 1008.13 1007.98 1007.84 1007.72 1007.66 1007.68 1007.81 1008.05 1008.39 1008.82 1009.31 1009.84 1010.37 1010.90 1011.42 1011.92 1012.42 1012.95 1013.50 1014.10 1014.74 1015.41 1016.07 1016.70 1017.26 1017.73 1018.10 1018.37 1018.55 1018.68 1018.78 1018.89 1019.02 1019.18 1019.38 1019.60 1019.82 1020.02
1012.32 1011.58 1010.82 1010.10 1009.48 1008.99 1008.62 1008.37 1008.21 1008.09 1007.98 1007.86 1007.72 1007.57 1007.44 1007.36 1007.36 1007.48 1007.72 1008.09 1008.55 1009.09 1009.67 1010.27 1010.85 1011.40 1011.94 1012.46 1013.00 1013.56 1014.15 1014.78 1015.43 1016.08 1016.70 1017.25 1017.72 1018.10 1018.39 1018.60 1018.76 1018.90 1019.05 1019.23 1019.44 1019.68 1019.94 1020.19 1020.43
1012.42 1011.61 1010.78 1009.99 1009.31 1008.77 1008.38 1008.12 1007.96 1007.87 1007.78 1007.68 1007.56 1007.41 1007.27 1007.17 1007.15 1007.24 1007.46 1007.81 1008.28 1008.85 1009.47 1010.11 1010.75 1011.36 1011.95 1012.51 1013.06 1013.63 1014.21 1014.81 1015.42 1016.04 1016.62 1017.16 1017.62 1018.01 1018.33 1018.58 1018.80 1019.00 1019.22 1019.46 1019.73 1020.02 1020.32 1020.62 1020.89
1012.62 1011.77 1010.87 1010.02 1009.27 1008.68 1008.24 1007.96 1007.80 1007.72 1007.66 1007.59 1007.49 1007.36 1007.23 1007.11 1007.05 1007.10 1007.28 1007.59 1008.04 1008.59 1009.23 1009.91 1010.60 1011.28 1011.92 1012.53 1013.12 1013.69 1014.25 1014.83 1015.40 1015.97 1016.51 1017.02 1017.49 1017.89 1018.25 1018.56 1018.85 1019.12 1019.41 1019.72 1020.05 1020.39 1020.74 1021.07 1021.37
1012.89 1012.00 1011.07 1010.16 1009.34 1008.68 1008.18 1007.85 1007.67 1007.58 1007.54 1007.51 1007.46 1007.36 1007.25 1007.13 1007.05 1007.05 1007.17 1007.42 1007.81 1008.34 1008.96 1009.66 1010.39 1011.12 1011.83 1012.50 1013.12 1013.72 1014.28 1014.83 1015.37 1015.89 1016.40 1016.90 1017.36 1017.79 1018.19 1018.57 1018.92 1019.28 1019.63 1020.00 1020.39 1020.77 1021.16 1021.51 1021.84
1013.16 1012.28 1011.32 1010.36 1009.47 1008.72 1008.14 1007.73 1007.49 1007.38 1007.34 1007.34 1007.34 1007.30 1007.23 1007.13 1007.05 1007.03 1007.09 1007.27 1007.60 1008.07 1008.67 1009.36 1010.12 1010.90 1011.66 1012.39 1013.07 1013.70 1014.28 1014.82 1015.33 1015.83 1016.32 1016.80 1017.27 1017.73 1018.17 1018.60 1019.03 1019.44 1019.86 1020.28 1020.70 1021.12 1021.52 1021.89 1022.23
1013.40 1012.55 1011.59 1010.59 1009.62 1008.76 1008.05 1007.52 1007.18 1007.01 1006.95 1006.97 1007.01 1007.04 1007.04 1007.01 1006.96 1006.94 1006.97 1007.11 1007.38 1007.80 1008.35 1009.03 1009.80 1010.62 1011.44 1012.23 1012.96 1013.63 1014.24 1014.79 1015.30 1015.79 1016.26 1016.74 1017.22 1017.71 1018.19 1018.66 1019.13 1019.60 1020.05 1020.50 1020.94 1021.37 1021.78 1022.16 1022.50
1013.54 1012.76 1011.82 1010.78 1009.73 1008.74 1007.88 1007.19 1006.70 1006.42 1006.30 1006.31 1006.40 1006.51 1006.60 1006.66 1006.69 1006.72 1006.77 1006.90 1007.14 1007.51 1008.03 1008.69 1009.46 1010.30 1011.16 1012.00 1012.79 1013.51 1014.16 1014.73 1015.25 1015.75 1016.23 1016.71 1017.20 1017.70 1018.21 1018.71 1019.21 1019.70 1020.17 1020.63 1021.07 1021.50 1021.91 1022.29 1022.64
1013.54 1012.85 1011.95 1010.90 1009.77 1008.64 1007.59 1006.71 1006.04 1005.61 1005.40 1005.38 1005.49 1005.67 1005.88 1006.07 1006.22 1006.34 1006.46 1006.62 1006.87 1007.23 1007.73 1008.37 1009.13 1009.98 1010.87 1011.75 1012.58 1013.35 1014.03 1014.64 1015.18 1015.69 1016.19 1016.68 1017.18 1017.69 1018.21 1018.73 1019.23 1019.72 1020.19 1020.64 1021.07 1021.50 1021.90 1022.29 1022.64
1013.34 1012.76 1011.93 1010.88 1009.69 1008.43 1007.21 1006.13 1005.26 1004.65 1004.32 1004.24 1004.36 1004.61 1004.93 1005.27 1005.57 1005.82 1006.05 1006.29 1006.58 1006.95 1007.45 1008.07 1008.83 1009.67 1010.56 1011.47 1012.33 1013.13 1013.85 1014.49 1015.07 1015.60 1016.11 1016.62 1017.13 1017.65 1018.17 1018.68 1019.18 1019.65 1020.11 1020.54 1020.96 1021.38 1021.78 1022.17 1022.54
1012.91 1012.45 1011.70 1010.69 1009.47 1008.12 1006.77 1005.51 1004.45 1003.68 1003.22 1003.07 1003.18 1003.49 1003.92 1004.38 1004.84 1005.24 1005.60 1005.94 1006.29 1006.70 1007.20 1007.81 1008.55 1009.38 1010.26 1011.17 1012.04 1012.87 1013.62 1014.29 1014.90 1015.46 1016.00 1016.52 1017.05 1017.57 1018.08 1018.58 1019.06 1019.52 1019.95 1020.37 1020.78 1021.18 1021.58 1021.98 1022.37
1012.25 1011.90 1011.25 1010.31 1009.11 1007.74 1006.31 1004.95 1003.76 1002.86 1002.30 1002.08 1002.17 1002.51 1003.01 1003.59 1004.18 1004.71 1005.19 1005.62 1006.03 1006.47 1006.98 1007.58 1008.29 1009.09 1009.95 1010.84 1011.72 1012.55 1013.33 1014.03 1014.67 1015.27 1015.83 1016.38 1016.92 1017.44 1017.96 1018.45 1018.91 1019.35 1019.77 1020.17 1020.56 1020.96 1021.36 1021.77 1022.17
1011.38 1011.11 1010.57 1009.73 1008.62 1007.31 1005.90 1004.52 1003.29 1002.33 1001.71 1001.45 1001.53 1001.88 1002.42 1003.06 1003.73 1004.35 1004.90 1005.39 1005.84 1006.29 1006.79 1007.37 1008.04 1008.80 1009.62 1010.49 1011.35 1012.19 1012.98 1013.71 1014.39 1015.02 1015.62 1016.20 1016.76 1017.30 1017.82 1018.31 1018.76 1019.19 1019.59 1019.98 1020.36 1020.75 1021.15 1021.56 1021.97
1010.35 1010.14 1009.70 1008.99 1008.02 1006.85 1005.56 1004.27 1003.11 1002.19 1001.58 1001.32 1001.39 1001.73 1002.28 1002.93 1003.60 1004.24 1004.80 1005.30 1005.74 1006.17 1006.63 1007.16 1007.78 1008.49 1009.27 1010.10 1010.95 1011.78 1012.58 1013.34 1014.06 1014.73 1015.37 1015.99 1016.58 1017.14 1017.68 1018.18 1018.63 1019.06 1019.45 1019.83 1020.20 1020.58 1020.97 1021.37 1021.78
1009.26 1009.05 1008.68 1008.12 1007.34 1006.38 1005.30 1004.21 1003.22 1002.44 1001.92 1001.71 1001.80 1002.13 1002.64 1003.24 1003.86 1004.44 1004.94 1005.37 1005.75 1006.12 1006.51 1006.97 1007.53 1008.18 1008.91 1009.70 1010.52 1011.35 1012.16 1012.94 1013.69 1014.41 1015.10 1015.76 1016.39 1016.99 1017.55 1018.06 1018.53 1018.95 1019.34 1019.71 1020.08 1020.44 1020.82 1021.21 1021.59
1008.21 1007.94 1007.62 1007.18 1006.60 1005.90 1005.10 1004.30 1003.57 1003.01 1002.66 1002.55 1002.69 1003.01 1003.46 1003.98 1004.49 1004.94 1005.32 1005.63 1005.90 1006.16 1006.46 1006.83 1007.30 1007.88 1008.56 1009.31 1010.10 1010.92 1011.73 1012.54 1013.32 1014.07 1014.80 1015.51 1016.18 1016.82 1017.41 1017.95 1018.43 1018.87 1019.26 1019.62 1019.98 1020.32 1020.68 1021.04 1021.40
1007.30 1006.93 1006.60 1006.26 1005.87 1005.42 1004.93 1004.46 1004.05 1003.76 1003.64 1003.69 1003.90 1004.23 1004.63 1005.04 1005.41 1005.70 1005.92 1006.07 1006.18 1006.31 1006.50 1006.77 1007.16 1007.67 1008.28 1008.98 1009.74 1010.53 1011.34 1012.15 1012.95 1013.73 1014.50 1015.25 1015.96 1016.63 1017.26 1017.82 1018.32 1018.77 1019.16 1019.53 1019.86 1020.19 1020.53 1020.86 1021.19
1006.66 1006.14 1005.75 1005.45 1005.19 1004.96 1004.76 1004.61 1004.53 1004.55 1004.68 1004.92 1005.24 1005.61 1005.97 1006.27 1006.50 1006.63 1006.68 1006.66 1006.62 1006.62 1006.68 1006.86 1007.16 1007.59 1008.14 1008.78 1009.49 1010.25 1011.03 1011.83 1012.62 1013.42 1014.20 1014.97 1015.71 1016.41 1017.06 1017.65 1018.17 1018.63 1019.03 1019.39 1019.72 1020.03 1020.34 1020.65 1020.95
1006.36 1005.67 1005.17 1004.84 1004.65 1004.56 1004.59 1004.70 1004.92 1005.23 1005.62 1006.05 1006.51 1006.93 1007.28 1007.52 1007.64 1007.64 1007.54 1007.38 1007.21 1007.09 1007.05 1007.13 1007.35 1007.71 1008.19 1008.76 1009.41 1010.11 1010.85 1011.60 1012.37 1013.15 1013.93 1014.70 1015.45 1016.17 1016.83 1017.44 1017.97 1018.44 1018.84 1019.20 1019.52 1019.83 1020.12 1020.41 1020.69
Thickness
5701 5705 5706 5700 5686 5673 5679 5697 5716 5727 5733 5743 5747 5745 5741 5738 5737 5736 5752 5760 5759 5756 5754 5752 5751 5749 5748 5747 5746 5745 5744 5743 5742 5741 5740 5739 5738 5737 5736 5735 5734 5733 5732 5731 5730 5729 5728 5727 5726
5694 5697 5693 5684 5670 5663 5677 5699 5713 5727 5738 5744 5744 5741 5737 5737 5746 5748 5751 5755 5756 5754 5752 5750 5748 5747 5745 5744 5743 5742 5741 5740 5738 5738 5737 5736 5735 5734 5733 5732 5730 5729 5728 5727 5726 5725 5724 5723 5722
5687 5688 5678 5670 5664 5669 5686 5706 5717 5729 5738 5739 5734 5736 5735 5736 5744 5747 5751 5753 5752 5750 5748 5746 5745 5744 5742 5741 5740 5739 5737 5736 5735 5734 5733 5732 5731 5730 5729 5728 5727 5725 5724 5723 5722 5721 5720 5719 5718
5677 5671 5666 5660 5666 5682 5696 5711 5718 5723 5731 5734 5729 5724 5731 5740 5744 5747 5750 5749 5747 5745 5744 5743 5741 5740 5739 5737 5736 5735 5734 5733 5731 5730 5729 5728 5727 5726 5725 5724 5722 5721 5720 5719 5718 5717 5716 5715 5714
5665 5657 5652 5653 5667 5684 5698 5711 5716 5718 5721 5725 5723 5717 5722 5735 5743 5745 5745 5744 5742 5740 5739 5738 5737 5736 5735 5733 5732 5731 5730 5729 5727 5726 5725 5724 5723 5722 5721 5719 5718 5717 5716 5715 5714 5713 5712 5711 5709
5649 5646 5641 5647 5665 5683 5696 5708 5710 5712 5714 5718 5717 5712 5716 5729 5734 5737 5740 5739 5738 5736 5734 5733 5732 5731 5730 5729 5728 5727 5726 5725 5724 5722 5721 5720 5719 5718 5716 5715 5714 5713 5712 5711 5710 5708 5707 5706 5705
5639 5639 5641 5651 5662 5674 5693 5703 5703 5705 5707 5712 5716 5707 5710 5720 5727 5731 5733 5733 5731 5730 5729 5728 5727 5726 5726 5724 5723 5722 5721 5720 5719 5718 5717 5715 5714 5713 5712 5711 5709 5708 5707 5706 5705 5704 5703 5702 5701
5637 5634 5640 5647 5658 5671 5691 5698 5703 5703 5704 5712 5713 5704 5705 5715 5722 5724 5724 5724 5723 5723 5723 5722 5722 5721 5720 5719 5718 5717 5716 5715 5714 5713 5712 5710 5709 5708 5707 5706 5705 5703 5702 5701 5700 5699 5698 5697 5696
5632 5624 5632 5646 5658 5670 5686 5689 5695 5702 5701 5703 5706 5709 5714 5717 5717 5716 5714 5714 5714 5715 5716 5716 5716 5716 5715 5714 5713 5712 5711 5710 5709 5707 5706 5705 5704 5703 5702 5700 5699 5698 5697 5696 5696 5694 5693 5692 5691
5619 5618 5636 5653 5661 5668 5677 5681 5686 5688 5687 5689 5695 5702 5708 5709 5709 5708 5707 5706 5707 5708 5709 5710 5710 5710 5709 5708 5707 5706 5705 5704 5703 5702 5701 5700 5699 5698 5697 5695 5694 5693 5692 5692 5691 5690 5689 5688 5686
5614 5620 5636 5648 5658 5664 5668 5672 5679 5679 5677 5684 5689 5694 5698 5699 5700 5700 5701 5702 5702 5703 5703 5704 5704 5704 5703 5702 5701 5700 5699 5698 5698 5696 5696 5695 5693 5692 5691 5690 5689 5688 5687 5686 5686 5685 5684 5683 5681
5608 5620 5630 5640 5649 5654 5659 5664 5666 5672 5678 5686 5690 5693 5692 5692 5693 5693 5694 5695 5696 5697 5697 5698 5698 5698 5697 5697 5696 5695 5694 5693 5692 5691 5690 5689 5688 5686 5685 5684 5683 5683 5682 5681 5680 5679 5679 5677 5676
5600 5612 5622 5630 5637 5643 5649 5652 5656 5661 5671 5677 5680 5682 5683 5684 5685 5686 5688 5689 5689 5689 5690 5691 5692 5692 5691 5691 5690 5689 5688 5687 5687 5686 5685 5684 5683 5681 5680 5679 5678 5677 5677 5675 5675 5674 5673 5672 5671
5596 5603 5610 5618 5626 5634 5637 5641 5646 5651 5660 5665 5668 5670 5673 5676 5678 5678 5679 5681 5682 5684 5684 5685 5686 5686 5685 5684 5684 5683 5682 5681 5680 5680 5679 5678 5677 5676 5674 5673 5672 5672 5671 5670 5669 5668 5667 5665 5664
5587 5590 5596 5605 5615 5622 5627 5625 5634 5645 5649 5653 5656 5660 5663 5666 5669 5672 5674 5675 5677 5677 5679 5679 5679 5679 5678 5678 5677 5676 5675 5675 5674 5674 5673 5672 5672 5670 5669 5667 5666 5666 5665 5664 5663 5661 5660 5659 5657
5572 5574 5577 5595 5605 5612 5611 5610 5628 5635 5639 5640 5645 5649 5653 5657 5660 5664 5667 5668 5669 5670 5671 5672 5673 5672 5671 5671 5670 5668 5668 5668 5667 5667 5666 5666 5665 5664 5663 5661 5660 5659 5658 5657 5656 5655 5653 5651 5649
5554 5558 5568 5584 5596 5601 5601 5604 5619 5625 5630 5631 5635 5639 5643 5646 5650 5654 5658 5661 5662 5662 5663 5664 5665 5664 5663 5663 5662 5661 5660 5660 5659 5659 5659 5659 5658 5657 5656 5655 5653 5652 5651 5650 5649 5647 5645 5643 5642
5546 5554 5562 5571 5585 5590 5591 5598 5609 5615 5620 5622 5625 5630 5634 5637 5641 5646 5649 5652 5653 5654 5655 5655 5655 5655 5655 5654 5653 5651 5651 5651 5651 5651 5651 5651 5651 5650 5649 5648 5646 5645 5644 5642 5641 5639 5638 5635 5634
5544 5550 5554 5565 5578 5579 5581 5588 5597 5604 5607 5609 5614 5619 5624 5628 5633 5636 5640 5641 5643 5644 5645 5645 5645 5646 5646 5645 5643 5642 5641 5642 5643 5643 5644 5643 5643 5642 5642 5640 5639 5638 5636 5634 5633 5631 5629 5627 5626
5536 5539 5543 5555 5567 5569 5569 5576 5586 5593 5599 5604 5607 5611 5615 5618 5621 5625 5628 5631 5633 5634 5635 5636 5636 5637 5638 5638 5637 5636 5635 5634 5634 5635 5635 5635 5635 5634 5633 5632 5631 5630 5628 5627 5625 5623 5620 5618 5617
5526 5531 5536 5543 5552 5556 5556 5558 5570 5582 5590 5595 5599 5603 5607 5611 5614 5616 5618 5620 5623 5624 5626 5628 5627 5628 5628 5629 5627 5626 5624 5624 5624 5624 5625 5626 5626 5626 5625 5624 5623 5622 5621 5619 5617 5616 5613 5609 5607
5516 5530 5535 5536 5533 5531 5542 5537 5557 5569 5576 5582 5586 5591 5596 5601 5605 5607 5609 5611 5612 5614 5616 5617 5618 5618 5618 5619 5618 5617 5616 5615 5615 5616 5616 5617 5617 5617 5616 5616 5615 5614 5613 5611 5609 5608 5606 5603 5599
5516 5526 5527 5527 5521 5520 5528 5527 5545 5558 5564 5572 5577 5581 5586 5590 5594 5597 5600 5601 5602 5604 5605 5607 5608 5608 5608 5609 5609 5608 5607 5607 5606 5607 5607 5607 5608 5608 5607 5607 5606 5605 5604 5602 5601 5600 5598 5596 5592
5512 5513 5512 5510 5507 5507 5521 5522 5534 5546 5561 5567 5569 5572 5576 5579 5583 5586 5589 5590 5591 5593 5594 5596 5597 5597 5598 5598 5599 5599 5598 5597 5597 5597 5597 5597 5597 5597 5598 5598 5597 5596 5595 5594 5592 5591 5589 5587 5585
5498 5494 5488 5489 5490 5500 5517 5519 5528 5542 5553 5560 5563 5564 5566 5569 5571 5575 5577 5579 5581 5582 5584 5585 5587 5587 5588 5588 5589 5589 5589 5589 5589 5589 5588 5587 5587 5588 5588 5588 5588 5587 5586 5585 5583 5582 5581 5579 5576
5488 5489 5485 5485 5486 5492 5507 5511 5521 5533 5541 5548 5552 5553 5555 5557 5560 5564 5567 5569 5570 5572 5573 5575 5577 5577 5578 5578 5579 5580 5580 5579 5579 5579 5579 5579 5579 5579 5579 5578 5578 5577 5576 5575 5574 5573 5571 5569 5567
5481 5481 5486 5479 5475 5481 5490 5498 5511 5523 5527 5532 5536 5539 5541 5544 5549 5552 5554 5557 5559 5561 5563 5565 5567 5567 5568 5568 5569 5569 5569 5569 5570 5569 5569 5569 5569 5569 5569 5569 5568 5567 5566 5565 5564 5563 5561 5560 5558
5480 5481 5475 5473 5473 5478 5483 5491 5501 5508 5512 5518 5521 5525 5529 5533 5536 5540 5543 5546 5548 5550 5552 5554 5556 5557 5557 5558 5559 5559 5559 5559 5560 5559 5559 5559 5560 5559 5559 5558 5557 5557 5556 5555 5554 5552 5551 5550 5548
5468 5471 5470 5465 5469 5471 5476 5486 5497 5501 5505 5507 5510 5514 5517 5520 5523 5527 5531 5534 5536 5538 5539 5541 5543 5544 5545 5546 5548 5548 5548 5548 5549 5549 5549 5549 5549 5549 5548 5548 5547 5547 5546 5545 5543 5542 5541 5540 5539
5463 5464 5463 5461 5456 5457 5463 5474 5488 5490 5495 5495 5498 5502 5505 5508 5511 5514 5518 5521 5522 5524 5526 5528 5530 5532 5534 5535 5536 5537 5537 5537 5537 5538 5538 5538 5538 5538 5538 5537 5536 5536 5535 5534 5533 5532 5531 5530 5528